Home   Weather   Scottsbluff   Past weeks
Flag for USA

Past Weather in Scottsbluff, Nebraska, USA — Yesterday and Last 2 Weeks

Now
38 °F

Clear.


Feels Like: 34 °F
Forecast: 75 / 37 °F
Wind: 5 mph from Southeast

Location: Heilig Field

Current Time: Apr 6, 2020 at 4:05:33 am

Latest Report: Apr 6, 2020 at 2:53 am


Visibility: 8 mi

Pressure: 29.71 "Hg (25.66 "Hg at 1186m altitude)

Humidity: 97%

Dew Point: 37 °F

Location of ScottsbluffLocation

Past Weather in Scottsbluff — Graph

°F

Scottsbluff Temperature Yesterday

Maximum temperature yesterday: 71 °F (at 2:53 pm)
Minimum temperature yesterday: 32 °F (at 5:53 am)
Average temperature yesterday: 52 °F

High & Low Weather Summary for the Past Weeks

 TemperatureHumidityPressure
High71 °F (Apr 5, 2:53 pm)100% (Mar 23, 7:18 am)30.41 "Hg (Mar 23, 7:18 am)
Low3 °F (Apr 3, 5:53 am)18% (Apr 4, 3:53 pm)29.58 "Hg (Apr 1, 1:53 pm)
Average41 °F65%29.89 "Hg
* Reported Mar 22 2:53 am — Apr 6 2:53 am, Scottsbluff. Weather by CustomWeather, © 2020

Note: Actual official high and low records may vary slightly from our data, if they occured in-between our weather recording intervals... More about our weather records

Scottsbluff Weather History for the Previous 24 Hours

Scroll right to see more
 ConditionsComfort  
Time TempWeatherWind HumidityBarometerVisibility
2:53 am
Mon, Apr 6
38 °FClear.5 mph97%29.71 "Hg8 mi
1:53 am40 °FClear.7 mph93%29.72 "Hg9 mi
12:53 am44 °FClear.6 mph82%29.72 "Hg10 mi
11:53 pm
Sun, Apr 5
49 °FPassing clouds.12 mph74%29.72 "Hg10 mi
10:53 pm52 °FPassing clouds.3 mph66%29.73 "Hg10 mi
9:53 pm57 °FPassing clouds.N/A49%29.70 "Hg10 mi
8:53 pm55 °FPassing clouds.6 mph44%29.70 "Hg10 mi
7:53 pm60 °FPassing clouds.7 mph36%29.66 "Hg10 mi
6:53 pm64 °FOvercast.3 mph32%29.66 "Hg10 mi
5:53 pm66 °FOvercast.12 mph29%29.65 "Hg10 mi
4:53 pm70 °FScattered clouds.8 mph23%29.63 "Hg10 mi
3:53 pm71 °FOvercast.10 mph19%29.60 "Hg10 mi
2:53 pm71 °FPartly sunny.12 mph25%29.60 "Hg10 mi
1:53 pm68 °FScattered clouds.14 mph28%29.63 "Hg10 mi
12:53 pm67 °FSunny.15 mph31%29.64 "Hg10 mi
11:53 am59 °FSunny.10 mph38%29.72 "Hg10 mi
10:53 am52 °FSunny.9 mph47%29.76 "Hg10 mi
9:53 am46 °FSunny.10 mph54%29.78 "Hg10 mi
8:53 am42 °FSunny.13 mph60%29.78 "Hg10 mi
7:53 am38 °FSunny.10 mph68%29.79 "Hg10 mi
6:53 am33 °FSunny.10 mph78%29.79 "Hg10 mi
5:53 am32 °FSunny.8 mph79%29.78 "Hg10 mi
4:53 am34 °FClear.8 mph76%29.77 "Hg10 mi
Weather by CustomWeather, © 2020

See weather overview

Advertising